Terminal Aerodrome Forecast
Issued by NWS Columbia, SC

Home | Current Version | Previous Version | Text Only | Print | Product List | Glossary On
Versions: 1 2 3 4 5 6 7 8 9 10 11 12 13 14 15 16 17 18 19 20 21 22 23 24 25 26 27 28 29 30 31 32 33 34 35 36 37 38 39 40 41 42 43 44 45 46 47 48 49 50
000
FTAK31 PAJN 080015 AAA
TAFAGS
TAF AMD
PAGS 080015Z 0800/0824 34005KT 1SM -SN BR FEW006 BKN015 OVC025
      TEMPO 0800/0804 3SM -SN BR SCT015 OVC025
     FM080700 VRB05KT P6SM VCSH SCT020 OVC040
     FM081500 VRB05KT P6SM BKN040
      AMD LTD TO CLD VIS AND WIND=

USA.gov is the U.S. government's official web portal to all federal, state and local government web resources and services.